Location: Unspecified
(56.5167°N, 0.0000°E)
Time: 04:05:34
(UTC+01:00)

Resurs 1-4 Rocket - Visible Passes

Search period start: 24 January 2019 00:00
Search period end: 03 February 2019 00:00
Orbit: 799 x 814 km, 98.6° (Epoch: 22 January)

Date Brightness Start Highest point End Pass type
(mag) Time Alt. Az. Time Alt. Az. Time Alt. Az.
24 Jan 4.8 04:31:17 10° N 04:31:21 10° N 04:31:21 10° N visible
25 Jan 4.9 04:06:30 10° N 04:06:32 10° N 04:06:32 10° N visible
26 Jan 4.5 05:22:36 10° N 05:22:48 11° N 05:22:48 11° N visible
27 Jan 4.6 04:57:38 10° N 04:57:59 11° N 04:57:59 11° N visible
28 Jan 4.7 04:32:46 10° N 04:33:09 12° N 04:33:09 12° N visible
29 Jan 4.8 04:07:59 10° N 04:08:20 12° N 04:08:20 12° N visible
29 Jan 4.5 05:49:18 10° NNW 05:49:25 10° NNW 05:49:25 10° NNW visible
30 Jan 4.9 03:43:17 10° NNE 03:43:32 11° NNE 03:43:32 11° NNE visible
30 Jan 4.5 05:24:07 10° N 05:24:37 12° N 05:24:37 12° N visible
31 Jan 5.0 03:18:37 10° NNE 03:18:43 11° NNE 03:18:43 11° NNE visible
31 Jan 4.5 04:59:08 10° N 04:59:48 13° N 04:59:48 13° N visible
01 Feb 4.5 04:34:16 10° N 04:34:59 13° N 04:34:59 13° N visible
02 Feb 4.6 04:09:29 10° N 04:10:11 14° N 04:10:11 14° N visible
02 Feb 4.4 05:50:50 10° NNW 05:51:16 11° NNW 05:51:16 11° NNW visible
